FENGYUN 1C DEB, 30326

Orbit data source: Space-Track

FENGYUN 1C DEB, 30326 is space debris in SSO originally from a launch on Mon, 10 May 1999 UTC launched from the Taiyaun Space Center, China (TSC). Fengyun 1C debris stems from the Chinese weather satellite Fengyun-1C, which was intentionally destroyed by a Chinese anti-satellite missile in 2007. This event dramatically increased the amount of space debris, with thousands of trackable fragments posing hazards to satellites and human spaceflight. The Fengyun 1C debris cloud has become a focal point in discussions about space sustainability and the need for international regulations to prevent the creation of new debris.

Loading next visibility...
FENGYUN 1C DEB details
Identifier
30326, 1999-025AAM
Orbit
SSO
Last TLE update17 hours ago
Origin
Flag of CNCASC (CN / PRC)
ManufacturerUnknown
MissionSpacecraft
Bus & MotorUnknown
MassUnknown
Launch date (UTC)
1999-05-10 (26 years ago)
Launch vehicleUnknown
Launch site
Taiyaun Space Center, China (TSC)
Object type
Payload
Rocket body
Debris
Shape & HBRUnknown
Radar Cross SectionSmall (<0.1 m²)

Expand to show TLE details & history

TLE from 17 hours ago
0 FENGYUN 1C DEB
1 30326U 99025AAM 25025.18052608  .00000295  00000-0  27179-3 0  9998
2 30326  98.6840 296.5022 0141669 185.7016 174.2534 13.85294058910036
Epoch: 2025-01-25T04:19Z
Definitive object data (Epoch: 2025-01-25T04:19:57.453Z)
Latitude-0.00007°
Longitude106.77978°
Altitude1,051.299 km
Speed7.274 km/s
True Right ascension19h 46m 00s
True Declination0° 00' 00"
Sunlit
Object was in daylight at TLE epoch
Visualization TLE readout
Latitude-19.63698°
Longitude-75.68841°
Altitude852.659 km
Speed7.476 km/s
Apparent Right ascension08h 41m 57s
Apparent Declination-30° 26' 53"
Sunlit
Object is in full shadow
Visualization observer readout
Local Sidereal Time22:14:45
Azimuth70.574° E
Elevation-68.893°
Doppler factor1
Orbital elements
Apogee altitude1,046.081 km
Perigee altitude838.663 km
Semi-major axis7,320.509 km
Eccentricity0.0141669
Inclination98.684°
RAAN296.5022°
Arg. of periapsis185.7016°
True anomaly174.41313°
Mean anomaly174.2534°
Eccentric anomaly174.33355°
Mean motion3.46522 °/min
BSTAR0.00027179
Orbital period103.89 mins
Loading maneuver chart data...
Loading historical data...
Loading historical data...
Loading historical data...
Loading historical data...
Loading historical data...
Loading historical data...
Loading historical data...

FENGYUN 1C DEB Visibility forecast

Observer location: undefined°, undefined

Span
Click to sort rows by Start time (UTC) header in descending order
Start Az.
Max El. time (UTC)
Max El. Az.
Max El.
End time (UTC)
End Az.
9 mins2025-01-26 06:56:34.603Z11.348° NNE2025-01-26 07:00:34.603Z299.064° NW44.814°2025-01-26 07:05:34.603Z198.068° SSW
8 mins2025-01-26 16:53:34.603Z114.108° SE2025-01-26 16:57:34.603Z59.332° ENE27.494°2025-01-26 17:01:34.603Z11.983° NNE
10 mins2025-01-26 18:34:34.603Z195.396° SSW2025-01-26 18:39:34.603Z260.812° W34.338°2025-01-26 18:44:34.603Z328.469° NNW
|